Total_Precipitation_Accumulation
0.01 0.02 0.04 0.08 0.08 0.06 0.08 0.14 0.25 0.19 0.16 0.19 0.20 0.20 0.24 0.25 0.21 0.17 0.16 0.14 0.15 0.18 0.21 0.25 0.25 0.22 0.19 0.17 0.17 0.23 0.27 0.34 0.44 0.38 0.32 0.29 0.25 0.19 0.17 0.20 0.25 0.37 0.44 0.49
0.01 0.02 0.03 0.06 0.09 0.07 0.05 0.05 0.09 0.12 0.17 0.18 0.18 0.19 0.20 0.19 0.17 0.16 0.16 0.13 0.12 0.14 0.17 0.19 0.16 0.11 0.08 0.08 0.11 0.17 0.23 0.28 0.35 0.34 0.27 0.20 0.16 0.11 0.10 0.14 0.20 0.27 0.30 0.34
0.00 0.01 0.03 0.09 0.09 0.05 0.03 0.02 0.04 0.13 0.21 0.19 0.20 0.19 0.18 0.16 0.14 0.12 0.10 0.08 0.07 0.06 0.06 0.05 0.05 0.04 0.05 0.05 0.06 0.14 0.23 0.31 0.35 0.39 0.39 0.27 0.14 0.10 0.12 0.16 0.21 0.24 0.23 0.22
0.00 0.02 0.12 0.10 0.03 0.02 0.02 0.02 0.03 0.06 0.09 0.10 0.09 0.07 0.06 0.06 0.05 0.03 0.03 0.03 0.03 0.02 0.02 0.02 0.02 0.04 0.07 0.06 0.07 0.12 0.22 0.28 0.31 0.34 0.35 0.30 0.23 0.20 0.21 0.24 0.29 0.30 0.24 0.22
0.01 0.02 0.08 0.04 0.02 0.02 0.04 0.04 0.03 0.03 0.04 0.04 0.04 0.04 0.06 0.03 0.02 0.01 0.01 0.01 0.01 0.01 0.01 0.02 0.02 0.05 0.10 0.11 0.14 0.18 0.27 0.35 0.35 0.36 0.35 0.28 0.25 0.26 0.27 0.30 0.32 0.32 0.27 0.24
0.01 0.02 0.07 0.05 0.04 0.06 0.04 0.11 0.08 0.05 0.04 0.03 0.02 0.08 0.10 0.04 0.01 0.01 0.01 0.01 0.02 0.02 0.02 0.04 0.06 0.09 0.15 0.20 0.25 0.31 0.39 0.45 0.43 0.45 0.46 0.41 0.40 0.39 0.36 0.37 0.33 0.30 0.29 0.32
0.01 0.03 0.04 0.02 0.04 0.04 0.08 0.15 0.04 0.02 0.01 0.01 0.02 0.05 0.05 0.02 0.01 0.01 0.01 0.02 0.03 0.04 0.04 0.06 0.09 0.12 0.21 0.26 0.29 0.32 0.35 0.42 0.48 0.52 0.57 0.60 0.62 0.57 0.51 0.46 0.43 0.38 0.35 0.36
0.03 0.07 0.09 0.02 0.01 0.01 0.04 0.02 0.01 0.01 0.01 0.02 0.02 0.01 0.01 0.01 0.01 0.01 0.02 0.03 0.04 0.06 0.05 0.07 0.10 0.16 0.22 0.25 0.28 0.31 0.36 0.43 0.50 0.54 0.54 0.63 0.81 0.79 0.76 0.70 0.58 0.51 0.48 0.43
0.02 0.04 0.02 0.00 0.00 0.01 0.01 0.01 0.02 0.02 0.01 0.02 0.02 0.02 0.02 0.02 0.02 0.02 0.02 0.03 0.05 0.09 0.10 0.13 0.16 0.26 0.37 0.34 0.34 0.39 0.44 0.50 0.54 0.54 0.59 0.70 0.79 0.83 0.83 0.77 0.66 0.60 0.59 0.57
0.03 0.01 0.00 0.01 0.01 0.01 0.01 0.01 0.01 0.01 0.01 0.02 0.03 0.03 0.03 0.03 0.03 0.04 0.04 0.06 0.09 0.14 0.20 0.28 0.32 0.39 0.47 0.43 0.44 0.48 0.50 0.53 0.56 0.58 0.60 0.66 0.78 0.79 0.76 0.71 0.69 0.67 0.65 0.62
0.03 0.02 0.01 0.01 0.02 0.01 0.00 0.01 0.01 0.01 0.02 0.02 0.03 0.04 0.04 0.04 0.05 0.05 0.06 0.07 0.13 0.21 0.30 0.37 0.45 0.51 0.54 0.55 0.61 0.63 0.59 0.56 0.59 0.61 0.64 0.70 0.76 0.81 0.79 0.72 0.66 0.69 0.68 0.64
0.04 0.04 0.05 0.05 0.03 0.01 0.01 0.01 0.01 0.02 0.02 0.03 0.04 0.05 0.04 0.05 0.05 0.05 0.07 0.08 0.13 0.20 0.30 0.38 0.47 0.54 0.57 0.67 0.78 0.84 0.83 0.73 0.71 0.73 0.75 0.79 0.79 0.70 0.60 0.57 0.47 0.45 0.48 0.51
0.05 0.04 0.04 0.03 0.02 0.01 0.02 0.01 0.02 0.02 0.03 0.03 0.04 0.04 0.05 0.05 0.05 0.06 0.07 0.10 0.16 0.23 0.31 0.36 0.42 0.52 0.61 0.74 0.82 0.85 0.87 0.85 0.80 0.81 0.83 0.82 0.82 0.76 0.65 0.54 0.47 0.41 0.38 0.40
0.02 0.02 0.01 0.01 0.01 0.01 0.01 0.01 0.02 0.03 0.04 0.04 0.05 0.06 0.06 0.07 0.07 0.09 0.11 0.14 0.18 0.24 0.32 0.38 0.45 0.50 0.60 0.72 0.81 0.83 0.82 0.81 0.81 0.82 0.83 0.79 0.76 0.74 0.75 0.68 0.58 0.48 0.38 0.37
0.01 0.01 0.02 0.01 0.01 0.02 0.03 0.04 0.04 0.05 0.05 0.04 0.04 0.05 0.06 0.07 0.09 0.10 0.12 0.16 0.21 0.26 0.31 0.40 0.52 0.57 0.66 0.74 0.79 0.82 0.83 0.83 0.83 0.78 0.76 0.76 0.73 0.69 0.70 0.73 0.66 0.55 0.45 0.42
0.02 0.02 0.03 0.03 0.04 0.05 0.06 0.06 0.06 0.06 0.06 0.06 0.06 0.07 0.08 0.09 0.10 0.11 0.13 0.19 0.28 0.34 0.41 0.51 0.55 0.61 0.75 0.84 0.85 0.85 0.86 0.87 0.90 0.84 0.72 0.70 0.72 0.72 0.70 0.72 0.68 0.56 0.46 0.41
0.05 0.06 0.07 0.07 0.08 0.08 0.08 0.09 0.09 0.09 0.09 0.09 0.08 0.09 0.10 0.12 0.13 0.15 0.17 0.22 0.29 0.34 0.44 0.57 0.58 0.61 0.75 0.89 0.96 0.96 0.88 0.82 0.83 0.82 0.73 0.64 0.64 0.67 0.65 0.65 0.58 0.49 0.41 0.35
0.09 0.11 0.13 0.13 0.14 0.13 0.12 0.12 0.13 0.14 0.15 0.14 0.13 0.13 0.16 0.20 0.23 0.24 0.26 0.29 0.33 0.34 0.37 0.46 0.55 0.63 0.72 0.83 0.92 0.95 0.93 0.87 0.79 0.76 0.73 0.66 0.61 0.60 0.60 0.57 0.47 0.41 0.36 0.31
0.09 0.12 0.14 0.16 0.18 0.19 0.21 0.23 0.24 0.24 0.23 0.23 0.24 0.25 0.26 0.28 0.31 0.33 0.35 0.40 0.51 0.56 0.50 0.49 0.57 0.60 0.67 0.78 0.90 0.88 0.90 0.92 0.84 0.69 0.65 0.66 0.59 0.56 0.48 0.45 0.40 0.36 0.30 0.26
0.14 0.18 0.22 0.25 0.28 0.32 0.35 0.35 0.36 0.36 0.35 0.35 0.35 0.35 0.36 0.35 0.38 0.43 0.47 0.51 0.60 0.70 0.67 0.63 0.58 0.54 0.62 0.78 0.89 0.83 0.77 0.81 0.78 0.65 0.62 0.64 0.55 0.47 0.37 0.35 0.32 0.29 0.24 0.20
0.20 0.24 0.28 0.31 0.33 0.36 0.39 0.41 0.42 0.41 0.38 0.37 0.39 0.41 0.41 0.39 0.41 0.50 0.64 0.68 0.61 0.66 0.67 0.65 0.58 0.56 0.58 0.75 0.81 0.80 0.73 0.70 0.69 0.62 0.55 0.53 0.47 0.39 0.30 0.30 0.27 0.22 0.19 0.15
0.20 0.23 0.26 0.27 0.28 0.28 0.27 0.29 0.30 0.30 0.29 0.29 0.32 0.36 0.43 0.45 0.44 0.49 0.57 0.68 0.70 0.73 0.66 0.63 0.60 0.57 0.56 0.65 0.71 0.78 0.79 0.71 0.66 0.56 0.47 0.41 0.38 0.33 0.26 0.25 0.22 0.15 0.13 0.11
0.13 0.14 0.15 0.15 0.16 0.15 0.12 0.13 0.18 0.23 0.25 0.27 0.31 0.40 0.53 0.55 0.55 0.64 0.64 0.57 0.65 0.66 0.61 0.59 0.57 0.54 0.50 0.52 0.62 0.69 0.75 0.71 0.66 0.55 0.44 0.36 0.29 0.24 0.20 0.19 0.15 0.11 0.09 0.09
0.04 0.04 0.05 0.06 0.07 0.10 0.11 0.13 0.16 0.19 0.22 0.26 0.28 0.38 0.58 0.70 0.65 0.60 0.58 0.57 0.55 0.50 0.48 0.48 0.43 0.40 0.42 0.42 0.51 0.58 0.65 0.66 0.65 0.54 0.44 0.35 0.25 0.22 0.19 0.16 0.13 0.11 0.09 0.07
0.02 0.02 0.03 0.06 0.12 0.19 0.24 0.25 0.22 0.22 0.27 0.30 0.29 0.37 0.52 0.66 0.74 0.66 0.54 0.47 0.44 0.40 0.40 0.38 0.34 0.37 0.39 0.41 0.48 0.56 0.62 0.62 0.61 0.55 0.44 0.34 0.27 0.23 0.20 0.17 0.14 0.11 0.08 0.05
0.03 0.05 0.07 0.11 0.19 0.29 0.36 0.37 0.38 0.39 0.46 0.51 0.49 0.51 0.58 0.58 0.61 0.59 0.49 0.40 0.36 0.38 0.38 0.37 0.33 0.33 0.36 0.42 0.46 0.53 0.60 0.60 0.56 0.49 0.38 0.31 0.25 0.22 0.20 0.16 0.13 0.11 0.08 0.06
0.06 0.09 0.14 0.18 0.25 0.34 0.40 0.47 0.54 0.58 0.66 0.76 0.80 0.73 0.70 0.67 0.62 0.53 0.44 0.36 0.33 0.33 0.35 0.34 0.31 0.29 0.32 0.38 0.44 0.50 0.51 0.51 0.47 0.42 0.39 0.34 0.30 0.27 0.23 0.18 0.14 0.12 0.09 0.08